Regional Weather Roundup
Issued by NWS Little Rock, AR

Home | Current Version | Previous Version | Text Only | Print | Product List | Glossary On
Versions: 1 2 3 4 5 6 7 8 9 10 11 12 13 14 15 16 17 18 19 20 21 22 23 24 25 26 27 28 29 30 31 32
000
ASUS44 KLZK 251905
RWRLZK

WEATHER ROUNDUP FOR ARKANSAS
NATIONAL WEATHER SERVICE LITTLE ROCK AR
200 PM CDT MON SEP 25 2017

NOTE: "FAIR" INDICATES FEW OR NO CLOUDS BELOW 12,000 FEET WITH NO
SIGNIFICANT WEATHER AND/OR OBSTRUCTIONS TO VISIBILITY.

ARZ001-003-010-029-252000-
NORTHWEST ARKANSAS

CITY           SKY/WX    TMP DP  RH WIND       PRES   REMARKS
FAYETTEVILLE   MOSUNNY   85  66  53 S13       29.94F HX  87
FORT SMITH     MOSUNNY   88  62  41 S9        29.89F HX  88
HARRISON       MOSUNNY   86  62  44 E7G16     29.97F HX  86
BENTONVILLE    PTSUNNY   84  62  47 S12       29.96F HX  85
ROGERS         SUNNY     85  64  49 S7G17     29.95F HX  86
SILOAM SPGS    MOSUNNY   86  62  44 S9G17     29.94F HX  86
HIGHFILL       SUNNY     85  63  47 S13G22    29.95F HX  86
SPRINGDALE     PTSUNNY   84  63  48 SE8       29.97F HX  85
$$

ARZ004-005-016-252000-
NORTH CENTRAL ARKANSAS

CITY           SKY/WX    TMP DP  RH WIND       PRES   REMARKS
BATESVILLE     PTSUNNY   89  65  44 SE10      29.95F HX  91
FLIPPIN        MOSUNNY   89  61  38 VRB7      29.94F HX  89
MTN HOME       SUNNY     88  60  38 S9        29.94F HX  87
$$

ARZ040-041-252000-
WEST CENTRAL ARKANSAS

CITY           SKY/WX    TMP DP  RH WIND       PRES   REMARKS
MENA           MOSUNNY   90  63  40 SE7       29.93F HX  90
MOUNT IDA      SUNNY     88  61  40 SE10      29.91F HX  88
$$

ARZ009-017-025-026-028-252000-
NORTHEAST ARKANSAS

CITY           SKY/WX    TMP DP  RH WIND       PRES   REMARKS
JONESBORO      MOSUNNY   89  66  46 SE9       29.94F HX  91
NEWPORT        PTSUNNY   90  66  45 E9        29.95F HX  92
WALNUT RIDGE   SUNNY     91  64  40 SE8       29.95F HX  92
BLYTHEVILLE    SUNNY     88  67  49 VRB7      29.96F HX  91
NW BLYTHEVILLE MOSUNNY   88  64  45 CALM      29.95F HX  89
$$

ARZ022-023-033-042-044-252000-
CENTRAL ARKANSAS

CITY           SKY/WX    TMP DP  RH WIND       PRES   REMARKS
LITTLE ROCK    PTSUNNY   88  67  49 S10       29.93F HX  91
N LITTLE ROCK    N/A     87  66  49 E10       29.93F HX  90
JACKSONVILLE   SUNNY     90  65  44 SE13G18   29.92F HX  92
SEARCY         SUNNY     90  68  48 S8        29.95F HX  94
HOT SPRINGS    SUNNY     89  63  41 SW5       29.93F HX  90
RUSSELLVILLE   MOSUNNY   88  64  44 CALM      29.92F HX  89
CLINTON        PTSUNNY   86  64  48 E6        29.93F HAZE    HX  87
$$

ARZ036-252000-
EAST ARKANSAS

CITY           SKY/WX    TMP DP  RH WIND       PRES   REMARKS
WEST MEMPHIS   MOSUNNY   88  66  48 S7        29.94F HX  90
$$

ARZ050-053-066-070-073-252000-
SOUTHWEST ARKANSAS

CITY           SKY/WX    TMP DP  RH WIND       PRES   REMARKS
ARKADELPHIA    FAIR      89  69  51 S7        29.92F HX  93
CAMDEN         PTSUNNY   90  63  40 VRB5G13   29.91F HX  90
TEXARKANA      MOSUNNY   89  66  46 SE8       29.91F HX  91
EL DORADO      MOSUNNY   88  64  44 E8        29.93F HX  89
DE QUEEN       MOSUNNY   86  68  54 E7        29.88F HX  89
$$

ARZ056-057-069-252000-
SOUTHEAST ARKANSAS

CITY           SKY/WX    TMP DP  RH WIND       PRES   REMARKS
PINE BLUFF     MOSUNNY   86  64  47 E8        29.93F HX  87
STUTTGART      MOSUNNY   88  65  46 E12       29.94F HX  90
MONTICELLO     MOSUNNY   88  63  43 E10       29.93F HX  89

$$






USA.gov is the U.S. government's official web portal to all federal, state and local government web resources and services.